Regional Weather Roundup
Issued by NWS Sioux Falls, SD

Home | Current Version | Previous Version | Text Only | Print | Product List | Glossary Off
Versions: 1 2 3 4 5 6 7 8 9 10 11 12 13 14 15 16 17 18 19 20 21 22 23 24 25 26 27 28 29 30 31 32 33 34 35 36 37 38 39 40 41 42 43 44 45 46 47 48 49 50

000
ASUS43 KFSD 292202
RWRFSD

WEATHER ROUNDUP FOR SE SOUTH DAKOTA/SW MINNESOTA/NW IOWA
NATIONAL WEATHER SERVICE SIOUX FALLS SD
500 PM CDT WED MAR 29 2017

NOTE: "FAIR" INDICATES FEW OR NO CLOUDS BELOW 12,000 FEET WITH NO
SIGNIFICANT WEATHER AND OR OBSTRUCTIONS TO VISIBILITY.


SDZ038>040-050-052>070-292300-
SOUTHEAST SOUTH DAKOTA

CITY           SKY/WX    TMP DP  RH WIND       PRES   REMARKS
BROOKINGS      CLOUDY    47  36  65 E20G25    30.07S
CHAMBERLAIN    CLOUDY    53  38  57 E13G20    30.04S
HURON          PTSUNNY   55  36  48 SE12      30.04F
MADISON        MOCLDY    46  39  76 E24G32    30.06S
MITCHELL       CLOUDY    53  35  50 E18G26    30.05F
SIOUX FALLS    LGT RAIN  43  40  89 E24G33    30.05F
WINNER         MOCLDY    52  38  58 E17       30.01S
YANKTON        CLOUDY    43  37  81 NE21G30   30.00F
$$

MNZ071-072-080-081-089-090-097-098-292300-
SOUTHWEST MINNESOTA

CITY           SKY/WX    TMP DP  RH WIND       PRES   REMARKS
FAIRMONT       LGT RAIN  41  37  86 E20G29    30.10S FOG
JACKSON        LGT RAIN  39  39 100 E22G28    30.08F
LUVERNE        LGT RAIN  41  36  81 E16G23    30.06F
MARSHALL       LGT RAIN  45  40  82 SE18G26   30.12S
MONTEVIDEO     CLOUDY    52  37  58 S18       30.13R
PIPESTONE      RAIN      43  36  75 SE16G24   30.06F
REDWOOD FALLS  LGT RAIN  45  40  82 SE14      30.13S
TRACY          LGT RAIN  44  41  91 E14       30.11S
WINDOM         LGT RAIN  43  39  87 E14G21    30.09F
WORTHINGTON    LGT RAIN  40  37  89 E20       30.06S
$$

IAZ001>003-012>014-020>022-031-032-NEZ013-014-SDZ071-292300-
NORTHWEST IOWA

CITY           SKY/WX    TMP DP  RH WIND       PRES   REMARKS
CHEROKEE       LGT RAIN  39  39  98 NE20G31   29.98F
DENISON        LGT RAIN  41  41 100 E24G32    29.94S
ESTHERVILLE    RAIN      40  38  93 E21G30    30.06F FOG
LE MARS        CLOUDY    41  39  93 NE17G30   29.99F
ORANGE CITY    LGT RAIN  39  37  93 E22G32    29.99F
SHELDON        CLOUDY    39  37  93 E26G36    30.00F FOG
SIOUX CITY     LGT RAIN  42  40  92 E24G36    29.95R
SPENCER        LGT RAIN  40  37  89 E31G41    30.03F
STORM LAKE     CLOUDY    39  37  93 NE33      29.96F FOG
$$

ABBREVIATIONS USED IN REMARKS
   TC - TEMPERATURE IN CELSIUS
  WCI - WIND CHILL INDEX
   HX - HEAT INDEX
  VSB - VISIBILITY





USA.gov is the U.S. government's official web portal to all federal, state and local government web resources and services.